GEFSMW_prec_meanprecacc_258.txt.gz
Total_Precipitation_Accumulation
1.76 2.21 2.34 2.40 2.70 2.94 3.10 3.09 3.29 3.65 3.88 4.24 4.22 4.41 4.86 5.23 5.35 5.44 5.42 5.34 5.27 5.27 5.11 4.95 5.05 4.88 4.64 4.40 4.32 4.29 4.19 3.87 3.77 3.75 3.34 2.73 2.35 2.16 2.00 2.00 2.03 1.88 1.89
1.60 2.07 2.27 2.58 2.80 2.93 3.19 3.32 3.47 3.93 4.41 4.94 5.44 5.82 6.17 6.16 6.27 6.22 6.10 5.80 5.62 5.54 5.38 5.36 5.18 4.94 4.77 4.50 4.33 4.27 4.16 3.83 3.79 3.83 3.79 3.08 2.56 2.02 1.60 1.70 1.75 1.70 1.76
1.71 1.94 2.16 2.44 2.67 2.87 3.15 3.33 3.69 4.35 5.17 5.69 6.16 6.72 7.03 6.72 6.43 6.15 6.07 5.99 5.91 5.81 5.67 5.64 5.38 5.12 4.84 4.48 4.22 4.09 3.98 3.84 3.82 3.73 3.87 3.33 2.68 2.17 1.77 1.57 1.48 1.54 1.68
1.69 1.89 2.06 2.29 2.58 2.92 3.05 3.28 3.92 4.66 5.32 5.89 6.50 7.10 7.40 7.43 7.20 6.64 6.16 5.76 5.47 5.25 5.12 5.07 4.91 4.71 4.41 4.16 3.86 3.76 3.71 3.83 3.67 3.60 3.43 3.17 2.79 2.55 2.19 1.84 1.62 1.55 1.56
1.61 1.77 1.93 2.12 2.25 2.61 3.10 3.45 4.04 4.74 5.40 6.16 6.91 7.37 7.61 7.59 7.22 6.43 5.65 5.11 4.80 4.51 4.26 4.18 4.09 3.94 3.74 3.55 3.46 3.46 3.41 3.39 3.25 3.12 3.10 3.10 3.02 2.72 2.40 2.08 1.82 1.72 1.62
1.43 1.47 1.67 1.86 2.16 2.54 2.95 3.44 3.75 4.36 5.05 5.67 6.26 6.50 6.69 6.63 6.20 5.78 5.28 4.86 4.34 3.88 3.52 3.36 3.26 3.12 3.01 2.99 3.00 3.04 3.02 3.02 3.00 2.93 2.82 2.75 2.73 2.56 2.47 2.21 1.97 1.95 1.81
1.36 1.56 1.83 1.83 2.12 2.44 2.82 3.28 3.67 4.04 4.56 5.11 5.61 5.86 6.03 5.94 5.46 5.01 4.58 4.18 3.68 3.28 2.95 2.74 2.68 2.60 2.56 2.57 2.68 2.77 2.71 2.65 2.66 2.64 2.57 2.51 2.44 2.37 2.36 2.41 2.22 1.96 1.73
1.44 1.54 1.68 1.78 2.08 2.33 2.61 3.02 3.35 3.71 3.95 4.18 4.56 4.81 4.97 4.85 4.51 4.04 3.56 3.26 2.96 2.65 2.47 2.34 2.25 2.16 2.08 2.07 2.22 2.36 2.43 2.38 2.40 2.39 2.48 2.40 2.27 2.23 2.19 2.24 2.32 2.23 2.00
1.29 1.42 1.60 1.73 1.93 2.25 2.61 2.87 3.01 3.22 3.42 3.64 3.73 3.72 3.83 3.76 3.51 3.21 2.88 2.58 2.32 2.06 1.92 1.88 1.85 1.79 1.75 1.82 1.98 2.05 2.01 2.03 2.08 2.18 2.28 2.26 2.24 2.24 2.16 2.22 2.30 2.37 2.28
1.27 1.31 1.46 1.65 1.75 1.83 2.18 2.51 2.59 2.71 2.80 2.90 2.96 2.89 2.95 2.86 2.79 2.62 2.39 2.12 1.95 1.72 1.62 1.58 1.59 1.61 1.59 1.63 1.70 1.79 1.81 1.79 1.79 1.91 2.07 2.13 2.15 2.26 2.30 2.39 2.40 2.40 2.39
1.40 1.38 1.45 1.53 1.64 1.78 1.95 2.20 2.40 2.41 2.44 2.56 2.55 2.47 2.53 2.51 2.48 2.37 2.20 2.04 1.97 1.80 1.66 1.56 1.60 1.62 1.55 1.53 1.56 1.53 1.58 1.67 1.70 1.74 1.84 1.94 1.99 2.09 2.12 2.19 2.22 2.31 2.35
1.38 1.35 1.34 1.33 1.41 1.63 1.86 2.03 2.16 2.17 2.21 2.29 2.36 2.45 2.48 2.40 2.28 2.09 1.97 1.84 1.72 1.55 1.48 1.45 1.50 1.48 1.36 1.35 1.33 1.27 1.31 1.41 1.51 1.59 1.66 1.74 1.76 1.83 1.81 1.90 1.96 1.99 2.04
1.53 1.43 1.33 1.30 1.35 1.49 1.61 1.76 1.96 2.07 2.11 2.12 2.08 2.24 2.31 2.19 2.04 1.90 1.82 1.72 1.58 1.50 1.49 1.45 1.42 1.39 1.29 1.21 1.17 1.18 1.18 1.16 1.25 1.36 1.42 1.48 1.49 1.47 1.44 1.50 1.51 1.61 1.72
1.67 1.45 1.38 1.35 1.39 1.48 1.51 1.55 1.68 1.86 1.99 2.08 2.23 2.26 2.19 2.04 1.94 1.76 1.58 1.48 1.38 1.40 1.46 1.41 1.32 1.21 1.13 1.08 1.12 1.17 1.16 1.11 1.12 1.15 1.19 1.21 1.16 1.12 1.15 1.17 1.22 1.36 1.62
1.57 1.43 1.40 1.47 1.49 1.45 1.44 1.47 1.62 1.70 1.92 2.04 2.04 1.99 1.91 1.84 1.81 1.75 1.60 1.44 1.30 1.25 1.32 1.26 1.20 1.12 1.02 0.95 0.99 1.05 1.06 1.06 1.03 1.03 1.03 0.99 0.97 0.99 0.97 0.92 1.03 1.23 1.48
1.46 1.41 1.36 1.47 1.42 1.38 1.34 1.32 1.45 1.49 1.62 1.75 1.75 1.68 1.66 1.70 1.65 1.63 1.52 1.42 1.31 1.25 1.27 1.23 1.12 0.99 0.85 0.87 0.89 0.85 0.90 1.00 1.06 1.03 0.94 0.89 0.85 0.83 0.84 0.85 0.94 1.06 1.19
1.63 1.64 1.67 1.67 1.52 1.41 1.34 1.37 1.43 1.47 1.53 1.60 1.54 1.54 1.54 1.50 1.48 1.35 1.29 1.33 1.36 1.29 1.22 1.13 1.02 0.93 0.86 0.80 0.76 0.79 0.87 0.96 1.04 1.06 1.07 0.92 0.76 0.83 0.87 0.89 0.95 0.99 1.03
1.94 1.94 1.88 1.74 1.59 1.47 1.42 1.42 1.42 1.47 1.56 1.53 1.45 1.38 1.39 1.34 1.31 1.29 1.28 1.28 1.29 1.25 1.21 1.11 1.00 0.91 0.81 0.78 0.77 0.79 0.81 0.93 0.98 0.98 1.00 1.01 0.95 0.90 0.94 0.93 0.95 0.98 1.04
1.93 1.84 1.76 1.66 1.55 1.44 1.39 1.34 1.35 1.34 1.35 1.30 1.25 1.16 1.20 1.26 1.27 1.24 1.31 1.29 1.20 1.15 1.09 1.03 1.00 0.95 0.83 0.76 0.72 0.77 0.85 0.93 0.89 0.83 0.82 0.82 0.82 0.82 0.90 0.98 1.06 1.07 1.06
1.57 1.61 1.62 1.52 1.42 1.32 1.24 1.22 1.25 1.23 1.19 1.16 1.14 1.04 1.05 1.12 1.20 1.22 1.25 1.16 1.09 1.06 0.94 0.91 0.96 0.95 0.89 0.76 0.68 0.72 0.75 0.81 0.80 0.78 0.75 0.74 0.69 0.67 0.66 0.77 0.97 1.09 1.05
1.35 1.35 1.49 1.52 1.34 1.14 1.08 1.15 1.14 1.12 1.00 0.98 1.04 1.04 1.03 1.04 1.06 1.08 1.13 1.09 1.02 1.00 0.99 0.98 1.00 1.00 0.93 0.78 0.68 0.66 0.66 0.69 0.72 0.75 0.75 0.73 0.64 0.55 0.56 0.67 0.84 0.92 0.91
1.24 1.23 1.35 1.29 1.12 1.00 1.04 1.10 1.08 0.96 0.89 0.95 1.08 1.09 1.06 0.95 0.93 1.07 1.13 1.06 1.01 0.96 1.00 1.01 1.01 1.02 0.98 0.82 0.70 0.64 0.62 0.64 0.67 0.72 0.71 0.67 0.62 0.53 0.56 0.63 0.75 0.80 0.90
1.09 1.10 1.15 1.12 1.03 0.98 1.04 1.09 1.04 0.91 0.93 1.02 1.08 1.10 1.03 1.00 0.99 1.04 1.05 0.98 0.95 0.88 0.87 0.89 0.92 0.93 0.86 0.79 0.71 0.65 0.60 0.60 0.63 0.64 0.63 0.61 0.62 0.64 0.73 0.79 0.80 0.87 1.06
0.97 0.97 1.03 1.02 0.97 0.90 0.91 0.93 0.86 0.84 0.96 1.06 1.04 1.03 1.04 1.03 0.97 0.92 0.89 0.86 0.85 0.80 0.76 0.78 0.81 0.77 0.75 0.69 0.59 0.56 0.55 0.55 0.59 0.61 0.66 0.73 0.79 0.82 0.85 0.92 1.00 1.05 1.12
0.92 0.94 1.01 1.01 0.90 0.84 0.80 0.79 0.80 0.87 0.98 0.99 0.91 0.90 0.93 0.90 0.87 0.76 0.71 0.70 0.65 0.58 0.56 0.57 0.59 0.58 0.58 0.58 0.52 0.50 0.51 0.49 0.52 0.59 0.73 0.91 0.98 1.00 0.99 0.97 1.00 1.04 1.05
0.87 0.90 0.89 0.89 0.84 0.76 0.72 0.74 0.76 0.77 0.88 0.87 0.82 0.78 0.80 0.79 0.73 0.69 0.64 0.58 0.47 0.44 0.41 0.39 0.41 0.42 0.47 0.46 0.39 0.41 0.44 0.45 0.54 0.63 0.86 0.99 1.03 1.05 0.95 0.90 0.88 0.88 0.89

GEFSMW_prec_meanprecacc_264.txt.gz
Total_Precipitation_Accumulation
1.80 2.24 2.36 2.41 2.71 2.97 3.14 3.11 3.32 3.70 3.93 4.29 4.26 4.45 4.90 5.25 5.38 5.47 5.46 5.37 5.30 5.31 5.14 4.99 5.09 4.94 4.69 4.45 4.38 4.35 4.25 3.92 3.83 3.82 3.41 2.79 2.39 2.19 2.02 2.01 2.05 1.90 1.90
1.65 2.09 2.28 2.58 2.83 2.99 3.23 3.35 3.49 3.97 4.44 4.97 5.47 5.86 6.20 6.19 6.30 6.25 6.15 5.85 5.66 5.57 5.40 5.38 5.22 4.99 4.83 4.56 4.37 4.33 4.23 3.89 3.85 3.89 3.85 3.12 2.60 2.05 1.61 1.70 1.76 1.72 1.78
1.74 1.96 2.17 2.45 2.69 2.95 3.20 3.36 3.72 4.38 5.20 5.73 6.20 6.75 7.05 6.73 6.45 6.17 6.10 6.02 5.95 5.84 5.69 5.66 5.40 5.16 4.89 4.54 4.27 4.13 4.03 3.89 3.86 3.77 3.90 3.36 2.70 2.20 1.78 1.57 1.49 1.55 1.70
1.71 1.92 2.09 2.30 2.58 2.94 3.09 3.31 3.97 4.70 5.35 5.92 6.54 7.13 7.41 7.43 7.21 6.65 6.17 5.77 5.49 5.27 5.14 5.09 4.94 4.75 4.45 4.20 3.91 3.80 3.74 3.85 3.70 3.64 3.46 3.20 2.81 2.57 2.20 1.85 1.63 1.56 1.58
1.63 1.80 1.96 2.14 2.27 2.62 3.13 3.49 4.09 4.78 5.42 6.18 6.93 7.38 7.62 7.60 7.23 6.43 5.66 5.11 4.80 4.52 4.28 4.20 4.12 3.98 3.78 3.59 3.50 3.51 3.45 3.41 3.27 3.14 3.13 3.13 3.05 2.74 2.41 2.10 1.83 1.74 1.63
1.44 1.51 1.72 1.87 2.17 2.55 2.97 3.46 3.77 4.38 5.07 5.69 6.28 6.51 6.71 6.64 6.21 5.78 5.29 4.88 4.36 3.90 3.54 3.38 3.29 3.15 3.04 3.04 3.05 3.10 3.07 3.08 3.04 2.96 2.85 2.79 2.77 2.59 2.49 2.22 1.98 1.97 1.83
1.37 1.58 1.85 1.85 2.13 2.45 2.84 3.30 3.68 4.05 4.57 5.13 5.63 5.89 6.06 5.96 5.47 5.03 4.61 4.21 3.72 3.31 2.98 2.77 2.71 2.64 2.60 2.60 2.72 2.81 2.75 2.69 2.71 2.68 2.61 2.56 2.49 2.41 2.40 2.43 2.23 1.97 1.74
1.45 1.55 1.69 1.78 2.09 2.34 2.62 3.03 3.36 3.72 3.95 4.19 4.59 4.84 5.01 4.88 4.55 4.09 3.63 3.33 3.03 2.70 2.50 2.37 2.28 2.20 2.12 2.11 2.26 2.40 2.47 2.43 2.45 2.44 2.52 2.44 2.31 2.28 2.25 2.28 2.34 2.24 2.01
1.29 1.43 1.61 1.74 1.94 2.25 2.62 2.88 3.03 3.24 3.43 3.66 3.76 3.76 3.87 3.80 3.57 3.28 2.98 2.68 2.39 2.10 1.97 1.93 1.89 1.84 1.80 1.86 2.02 2.09 2.06 2.08 2.14 2.23 2.33 2.30 2.27 2.27 2.21 2.27 2.34 2.40 2.30
1.28 1.32 1.47 1.66 1.76 1.85 2.20 2.53 2.62 2.75 2.84 2.94 3.00 2.93 2.99 2.90 2.85 2.67 2.44 2.18 2.01 1.78 1.68 1.64 1.65 1.67 1.63 1.67 1.73 1.82 1.85 1.83 1.83 1.96 2.11 2.16 2.18 2.28 2.32 2.41 2.44 2.43 2.42
1.42 1.40 1.47 1.54 1.67 1.81 1.99 2.23 2.44 2.45 2.49 2.62 2.60 2.51 2.57 2.55 2.53 2.41 2.25 2.10 2.03 1.87 1.73 1.62 1.67 1.68 1.60 1.57 1.60 1.58 1.63 1.72 1.74 1.77 1.87 1.96 2.01 2.11 2.15 2.22 2.25 2.33 2.37
1.40 1.37 1.37 1.36 1.44 1.67 1.90 2.06 2.19 2.20 2.26 2.34 2.42 2.51 2.53 2.44 2.32 2.13 2.02 1.90 1.79 1.63 1.55 1.51 1.57 1.54 1.42 1.41 1.38 1.32 1.36 1.46 1.56 1.63 1.70 1.77 1.78 1.85 1.83 1.92 1.99 2.02 2.08
1.56 1.45 1.36 1.34 1.38 1.52 1.64 1.79 1.99 2.10 2.14 2.15 2.13 2.30 2.36 2.23 2.07 1.94 1.87 1.77 1.62 1.55 1.54 1.49 1.46 1.44 1.34 1.28 1.24 1.24 1.23 1.21 1.29 1.40 1.45 1.51 1.52 1.50 1.46 1.52 1.54 1.64 1.75
1.70 1.48 1.41 1.38 1.42 1.50 1.53 1.57 1.70 1.88 2.02 2.11 2.27 2.31 2.23 2.09 1.99 1.80 1.62 1.52 1.43 1.45 1.51 1.45 1.37 1.28 1.20 1.14 1.17 1.21 1.21 1.16 1.17 1.18 1.22 1.24 1.18 1.15 1.18 1.20 1.25 1.40 1.66
1.60 1.46 1.43 1.51 1.52 1.48 1.47 1.50 1.64 1.72 1.95 2.06 2.07 2.03 1.96 1.88 1.85 1.78 1.63 1.47 1.34 1.29 1.37 1.32 1.27 1.19 1.08 1.02 1.05 1.11 1.11 1.10 1.06 1.06 1.06 1.02 0.99 1.02 1.00 0.95 1.06 1.27 1.52
1.48 1.43 1.38 1.49 1.46 1.41 1.37 1.34 1.47 1.50 1.64 1.77 1.78 1.72 1.70 1.74 1.69 1.66 1.55 1.45 1.35 1.28 1.30 1.27 1.18 1.04 0.88 0.90 0.91 0.88 0.92 1.03 1.09 1.05 0.96 0.91 0.87 0.86 0.87 0.88 0.96 1.09 1.21
1.64 1.66 1.68 1.69 1.54 1.42 1.35 1.39 1.46 1.48 1.55 1.62 1.57 1.58 1.58 1.55 1.52 1.38 1.32 1.36 1.39 1.32 1.25 1.17 1.06 0.95 0.88 0.82 0.79 0.82 0.89 0.98 1.06 1.08 1.08 0.94 0.79 0.87 0.90 0.92 0.97 1.01 1.05
1.95 1.96 1.90 1.76 1.61 1.48 1.44 1.46 1.45 1.49 1.58 1.56 1.49 1.44 1.44 1.38 1.35 1.32 1.31 1.31 1.31 1.28 1.23 1.13 1.02 0.93 0.84 0.81 0.79 0.82 0.83 0.94 0.99 1.00 1.02 1.03 0.98 0.93 0.98 0.95 0.97 0.99 1.05
1.94 1.86 1.77 1.68 1.57 1.46 1.41 1.38 1.39 1.38 1.38 1.34 1.31 1.24 1.25 1.30 1.30 1.27 1.34 1.32 1.23 1.18 1.12 1.05 1.02 0.97 0.85 0.78 0.75 0.79 0.87 0.94 0.91 0.84 0.83 0.83 0.84 0.85 0.94 1.01 1.07 1.07 1.06
1.59 1.63 1.64 1.54 1.44 1.35 1.27 1.26 1.29 1.28 1.24 1.21 1.21 1.11 1.10 1.15 1.23 1.25 1.28 1.20 1.13 1.09 0.97 0.93 0.98 0.97 0.91 0.79 0.69 0.73 0.76 0.82 0.81 0.78 0.76 0.75 0.71 0.69 0.68 0.79 0.98 1.09 1.05
1.36 1.37 1.50 1.54 1.37 1.18 1.14 1.20 1.19 1.17 1.06 1.04 1.10 1.09 1.06 1.07 1.08 1.10 1.16 1.12 1.05 1.03 1.01 0.99 1.01 1.01 0.95 0.81 0.70 0.68 0.67 0.69 0.73 0.76 0.76 0.74 0.65 0.56 0.57 0.69 0.85 0.92 0.91
1.25 1.24 1.37 1.34 1.18 1.05 1.09 1.16 1.14 1.03 0.94 1.01 1.12 1.12 1.08 0.97 0.95 1.09 1.14 1.08 1.03 0.98 1.02 1.03 1.03 1.03 0.99 0.83 0.71 0.65 0.63 0.65 0.68 0.72 0.71 0.67 0.62 0.54 0.57 0.64 0.76 0.80 0.91
1.10 1.11 1.17 1.17 1.08 1.02 1.07 1.12 1.08 0.96 0.99 1.06 1.11 1.12 1.04 1.01 1.00 1.06 1.06 1.00 0.97 0.89 0.89 0.91 0.94 0.94 0.87 0.79 0.71 0.66 0.61 0.61 0.64 0.65 0.64 0.61 0.63 0.64 0.73 0.79 0.80 0.88 1.07
0.98 0.98 1.05 1.06 1.01 0.93 0.94 0.95 0.88 0.87 1.00 1.09 1.06 1.05 1.06 1.04 0.98 0.94 0.91 0.88 0.87 0.81 0.78 0.80 0.82 0.79 0.76 0.69 0.60 0.57 0.56 0.56 0.60 0.63 0.68 0.75 0.81 0.83 0.87 0.92 1.01 1.07 1.14
0.93 0.96 1.04 1.05 0.93 0.86 0.82 0.80 0.81 0.88 1.00 1.01 0.93 0.91 0.94 0.92 0.88 0.78 0.73 0.72 0.67 0.59 0.58 0.59 0.60 0.59 0.59 0.58 0.53 0.50 0.52 0.50 0.54 0.61 0.75 0.93 1.00 1.02 1.00 0.99 1.02 1.06 1.07
0.91 0.95 0.93 0.93 0.87 0.78 0.74 0.76 0.78 0.79 0.90 0.89 0.83 0.79 0.81 0.80 0.74 0.70 0.66 0.60 0.49 0.46 0.43 0.41 0.43 0.43 0.47 0.46 0.40 0.42 0.45 0.46 0.55 0.64 0.86 1.01 1.05 1.07 0.97 0.92 0.90 0.90 0.90

GEFSMW_prec_meanprecacc_270.txt.gz
Total_Precipitation_Accumulation
1.82 2.25 2.38 2.43 2.74 3.00 3.17 3.13 3.33 3.72 3.96 4.33 4.33 4.52 4.98 5.31 5.41 5.51 5.51 5.43 5.35 5.35 5.18 5.01 5.12 4.97 4.73 4.50 4.43 4.40 4.30 3.97 3.88 3.88 3.45 2.83 2.41 2.22 2.04 2.04 2.07 1.92 1.92
1.68 2.10 2.30 2.61 2.87 3.02 3.26 3.37 3.50 3.99 4.47 5.03 5.56 5.93 6.29 6.28 6.36 6.30 6.19 5.89 5.71 5.62 5.44 5.41 5.25 5.03 4.88 4.62 4.43 4.38 4.29 3.95 3.91 3.95 3.90 3.16 2.63 2.07 1.63 1.73 1.78 1.74 1.80
1.75 1.97 2.18 2.46 2.72 2.98 3.24 3.38 3.73 4.40 5.24 5.78 6.27 6.81 7.11 6.80 6.51 6.22 6.14 6.06 5.99 5.89 5.74 5.70 5.44 5.20 4.92 4.57 4.32 4.19 4.09 3.95 3.94 3.84 3.97 3.42 2.75 2.23 1.80 1.59 1.51 1.57 1.72
1.72 1.92 2.09 2.31 2.60 2.97 3.12 3.33 3.98 4.71 5.37 5.95 6.59 7.19 7.47 7.50 7.26 6.69 6.20 5.79 5.51 5.30 5.19 5.13 4.98 4.78 4.49 4.24 3.96 3.86 3.80 3.94 3.78 3.71 3.52 3.25 2.87 2.64 2.25 1.87 1.64 1.58 1.59
1.64 1.81 1.96 2.14 2.28 2.64 3.14 3.50 4.10 4.80 5.44 6.20 6.96 7.43 7.66 7.64 7.26 6.47 5.69 5.13 4.83 4.56 4.34 4.25 4.16 4.02 3.82 3.64 3.55 3.57 3.52 3.47 3.33 3.20 3.19 3.19 3.12 2.80 2.47 2.14 1.87 1.76 1.65
1.45 1.52 1.72 1.88 2.18 2.56 2.97 3.47 3.79 4.39 5.08 5.70 6.29 6.54 6.73 6.66 6.23 5.81 5.32 4.90 4.39 3.95 3.60 3.43 3.35 3.20 3.08 3.08 3.10 3.15 3.12 3.13 3.10 3.02 2.90 2.85 2.83 2.64 2.55 2.28 2.03 2.00 1.85
1.38 1.59 1.86 1.86 2.14 2.45 2.84 3.31 3.71 4.07 4.58 5.14 5.65 5.90 6.08 5.98 5.48 5.05 4.62 4.23 3.74 3.36 3.04 2.83 2.77 2.68 2.63 2.64 2.76 2.85 2.79 2.74 2.77 2.75 2.67 2.61 2.53 2.47 2.45 2.49 2.29 2.01 1.77
1.45 1.56 1.70 1.79 2.10 2.35 2.62 3.05 3.38 3.74 3.96 4.21 4.60 4.86 5.03 4.90 4.57 4.11 3.64 3.35 3.06 2.74 2.54 2.40 2.32 2.24 2.16 2.15 2.31 2.46 2.52 2.48 2.49 2.47 2.56 2.49 2.36 2.33 2.31 2.36 2.42 2.31 2.04
1.30 1.44 1.62 1.75 1.95 2.27 2.63 2.89 3.05 3.26 3.46 3.69 3.78 3.78 3.90 3.83 3.59 3.31 3.00 2.71 2.42 2.13 1.99 1.95 1.93 1.88 1.85 1.91 2.06 2.13 2.10 2.13 2.18 2.28 2.38 2.36 2.33 2.33 2.27 2.33 2.40 2.47 2.37
1.28 1.33 1.48 1.68 1.77 1.87 2.22 2.56 2.65 2.78 2.87 2.97 3.04 2.97 3.04 2.94 2.88 2.71 2.47 2.21 2.04 1.81 1.71 1.68 1.69 1.71 1.67 1.71 1.78 1.87 1.89 1.88 1.88 2.01 2.18 2.24 2.25 2.35 2.40 2.47 2.49 2.49 2.49
1.42 1.41 1.49 1.56 1.69 1.83 2.01 2.27 2.49 2.51 2.53 2.65 2.64 2.55 2.61 2.59 2.57 2.45 2.29 2.14 2.07 1.91 1.77 1.66 1.71 1.71 1.64 1.61 1.66 1.64 1.68 1.76 1.79 1.83 1.92 2.01 2.07 2.18 2.22 2.28 2.30 2.39 2.43
1.41 1.39 1.39 1.38 1.46 1.69 1.93 2.10 2.24 2.26 2.31 2.39 2.46 2.55 2.56 2.48 2.35 2.17 2.05 1.93 1.82 1.66 1.58 1.54 1.60 1.58 1.47 1.45 1.42 1.36 1.40 1.50 1.60 1.68 1.74 1.81 1.83 1.91 1.89 1.98 2.04 2.07 2.14
1.57 1.47 1.38 1.37 1.40 1.55 1.67 1.83 2.04 2.15 2.21 2.20 2.17 2.33 2.39 2.26 2.10 1.97 1.90 1.79 1.65 1.58 1.57 1.52 1.49 1.47 1.38 1.32 1.29 1.28 1.26 1.24 1.33 1.44 1.49 1.56 1.58 1.56 1.53 1.59 1.60 1.71 1.81
1.72 1.50 1.45 1.41 1.45 1.54 1.57 1.62 1.75 1.92 2.07 2.16 2.31 2.35 2.27 2.12 2.02 1.83 1.65 1.55 1.46 1.49 1.55 1.49 1.40 1.31 1.25 1.19 1.22 1.26 1.25 1.20 1.21 1.23 1.26 1.28 1.23 1.20 1.24 1.26 1.32 1.46 1.73
1.61 1.48 1.48 1.53 1.54 1.50 1.50 1.53 1.67 1.75 1.97 2.09 2.09 2.05 1.98 1.91 1.89 1.82 1.67 1.50 1.37 1.33 1.42 1.37 1.33 1.24 1.13 1.05 1.09 1.15 1.15 1.15 1.12 1.10 1.09 1.05 1.03 1.05 1.04 0.99 1.10 1.31 1.57
1.49 1.44 1.42 1.52 1.47 1.42 1.39 1.36 1.49 1.52 1.65 1.79 1.79 1.73 1.72 1.76 1.72 1.70 1.58 1.48 1.37 1.31 1.33 1.31 1.22 1.08 0.92 0.92 0.94 0.91 0.95 1.09 1.14 1.10 1.01 0.94 0.89 0.88 0.89 0.90 0.98 1.12 1.25
1.65 1.68 1.72 1.72 1.54 1.42 1.37 1.41 1.47 1.50 1.56 1.63 1.58 1.59 1.59 1.56 1.53 1.40 1.35 1.39 1.42 1.34 1.28 1.19 1.08 0.98 0.90 0.85 0.81 0.85 0.92 1.01 1.10 1.12 1.12 0.96 0.81 0.89 0.93 0.95 1.00 1.03 1.08
1.97 1.98 1.94 1.81 1.62 1.49 1.45 1.47 1.47 1.51 1.59 1.57 1.50 1.45 1.45 1.40 1.37 1.35 1.33 1.34 1.34 1.30 1.25 1.14 1.04 0.96 0.86 0.84 0.82 0.84 0.85 0.97 1.01 1.02 1.04 1.06 1.00 0.95 1.00 0.98 1.01 1.03 1.07
1.97 1.89 1.82 1.72 1.60 1.48 1.43 1.40 1.41 1.39 1.40 1.35 1.32 1.25 1.27 1.32 1.33 1.30 1.36 1.35 1.26 1.21 1.14 1.08 1.04 0.99 0.88 0.81 0.77 0.81 0.89 0.97 0.93 0.87 0.85 0.85 0.86 0.86 0.96 1.03 1.12 1.12 1.09
1.61 1.67 1.68 1.58 1.48 1.39 1.30 1.28 1.32 1.31 1.27 1.23 1.23 1.14 1.13 1.19 1.26 1.28 1.31 1.23 1.17 1.14 1.02 0.97 1.00 0.99 0.94 0.81 0.71 0.75 0.78 0.84 0.83 0.80 0.77 0.76 0.72 0.70 0.70 0.81 1.01 1.13 1.08
1.37 1.39 1.52 1.56 1.40 1.20 1.15 1.23 1.21 1.20 1.08 1.06 1.13 1.12 1.10 1.11 1.12 1.14 1.19 1.15 1.10 1.09 1.07 1.05 1.05 1.04 0.98 0.83 0.71 0.70 0.68 0.71 0.74 0.77 0.77 0.75 0.65 0.56 0.58 0.70 0.87 0.95 0.93
1.25 1.25 1.38 1.34 1.19 1.06 1.10 1.19 1.17 1.06 0.98 1.04 1.16 1.15 1.13 1.02 1.00 1.13 1.18 1.12 1.09 1.04 1.07 1.07 1.06 1.06 1.02 0.85 0.73 0.67 0.65 0.66 0.69 0.74 0.73 0.69 0.63 0.55 0.58 0.64 0.76 0.81 0.93
1.11 1.11 1.18 1.18 1.09 1.03 1.08 1.14 1.11 1.00 1.04 1.12 1.17 1.18 1.10 1.08 1.08 1.11 1.12 1.05 1.02 0.94 0.93 0.94 0.96 0.96 0.89 0.81 0.73 0.67 0.63 0.63 0.65 0.66 0.65 0.63 0.64 0.66 0.74 0.79 0.81 0.89 1.09
0.98 0.99 1.06 1.07 1.02 0.94 0.94 0.97 0.91 0.91 1.05 1.17 1.15 1.14 1.13 1.11 1.06 1.01 0.97 0.94 0.92 0.86 0.81 0.82 0.85 0.80 0.78 0.71 0.62 0.59 0.58 0.57 0.61 0.64 0.70 0.77 0.83 0.85 0.88 0.93 1.02 1.09 1.17
0.93 0.98 1.06 1.05 0.94 0.86 0.82 0.81 0.84 0.93 1.04 1.06 1.00 0.98 1.01 0.99 0.94 0.83 0.77 0.75 0.70 0.62 0.60 0.60 0.62 0.60 0.61 0.61 0.56 0.53 0.54 0.52 0.56 0.63 0.77 0.95 1.02 1.04 1.02 1.00 1.04 1.08 1.09
0.93 0.99 0.97 0.94 0.88 0.78 0.74 0.77 0.80 0.82 0.92 0.92 0.86 0.83 0.85 0.84 0.78 0.73 0.67 0.62 0.51 0.47 0.44 0.42 0.43 0.44 0.49 0.50 0.44 0.44 0.47 0.48 0.57 0.66 0.89 1.04 1.08 1.10 1.01 0.95 0.93 0.92 0.93

GEFSMW_prec_meanprecacc_276.txt.gz
Total_Precipitation_Accumulation
1.83 2.26 2.38 2.44 2.75 3.02 3.19 3.16 3.39 3.79 4.03 4.39 4.37 4.57 5.04 5.37 5.48 5.58 5.57 5.50 5.43 5.43 5.27 5.09 5.19 5.04 4.80 4.56 4.50 4.48 4.40 4.08 4.00 4.00 3.56 2.91 2.47 2.27 2.10 2.10 2.15 1.98 1.96
1.68 2.10 2.30 2.61 2.88 3.04 3.28 3.39 3.54 4.04 4.54 5.09 5.61 5.99 6.37 6.38 6.45 6.37 6.27 5.96 5.77 5.68 5.50 5.50 5.32 5.09 4.96 4.70 4.50 4.46 4.38 4.05 4.03 4.06 4.00 3.26 2.72 2.13 1.68 1.78 1.84 1.81 1.87
1.75 1.97 2.19 2.47 2.73 3.00 3.26 3.41 3.77 4.43 5.28 5.84 6.32 6.87 7.19 6.89 6.60 6.31 6.22 6.12 6.03 5.94 5.81 5.78 5.49 5.25 4.99 4.64 4.38 4.26 4.18 4.04 4.03 3.94 4.07 3.52 2.85 2.33 1.88 1.65 1.57 1.63 1.78
1.72 1.93 2.11 2.32 2.61 3.00 3.15 3.37 4.03 4.75 5.41 6.00 6.63 7.22 7.50 7.53 7.29 6.73 6.24 5.82 5.54 5.34 5.23 5.18 5.02 4.82 4.53 4.29 4.00 3.92 3.88 4.02 3.86 3.81 3.62 3.35 2.99 2.75 2.36 1.97 1.71 1.65 1.66
1.64 1.83 1.99 2.16 2.30 2.67 3.16 3.52 4.13 4.83 5.48 6.23 7.00 7.46 7.69 7.66 7.28 6.50 5.71 5.16 4.86 4.59 4.37 4.29 4.20 4.05 3.86 3.68 3.60 3.63 3.58 3.54 3.40 3.29 3.28 3.30 3.24 2.91 2.58 2.24 1.96 1.85 1.72
1.46 1.56 1.78 1.91 2.20 2.57 2.99 3.49 3.82 4.43 5.12 5.73 6.33 6.56 6.76 6.69 6.26 5.84 5.34 4.94 4.44 3.99 3.63 3.48 3.40 3.25 3.12 3.13 3.15 3.21 3.18 3.20 3.18 3.09 2.96 2.93 2.92 2.73 2.65 2.38 2.13 2.10 1.92
1.38 1.60 1.88 1.88 2.16 2.47 2.85 3.34 3.76 4.11 4.63 5.18 5.69 5.94 6.12 6.02 5.52 5.08 4.67 4.27 3.78 3.40 3.08 2.88 2.81 2.72 2.68 2.68 2.82 2.91 2.85 2.79 2.83 2.81 2.72 2.66 2.58 2.52 2.52 2.59 2.39 2.12 1.86
1.46 1.56 1.71 1.80 2.11 2.37 2.64 3.06 3.42 3.78 4.00 4.24 4.64 4.90 5.08 4.95 4.62 4.16 3.69 3.40 3.11 2.79 2.59 2.44 2.36 2.28 2.21 2.20 2.37 2.51 2.57 2.53 2.54 2.52 2.62 2.55 2.41 2.38 2.37 2.43 2.52 2.42 2.14
1.35 1.47 1.64 1.77 1.97 2.29 2.66 2.92 3.08 3.29 3.50 3.73 3.83 3.83 3.96 3.89 3.67 3.39 3.07 2.78 2.50 2.20 2.04 2.00 1.98 1.93 1.91 1.97 2.13 2.21 2.17 2.21 2.25 2.34 2.44 2.42 2.38 2.38 2.32 2.40 2.50 2.58 2.47
1.34 1.37 1.51 1.71 1.80 1.89 2.25 2.59 2.70 2.81 2.93 3.03 3.10 3.03 3.11 3.03 2.99 2.82 2.57 2.31 2.13 1.89 1.78 1.73 1.77 1.80 1.75 1.79 1.87 1.96 1.98 1.96 1.95 2.08 2.24 2.30 2.30 2.41 2.45 2.54 2.57 2.58 2.58
1.47 1.44 1.50 1.58 1.70 1.85 2.03 2.30 2.54 2.56 2.59 2.72 2.72 2.64 2.71 2.70 2.68 2.55 2.37 2.22 2.16 1.99 1.84 1.72 1.78 1.78 1.70 1.69 1.74 1.72 1.76 1.83 1.87 1.89 1.98 2.07 2.13 2.25 2.28 2.35 2.37 2.46 2.51
1.44 1.41 1.40 1.39 1.48 1.71 1.95 2.13 2.28 2.31 2.37 2.45 2.52 2.61 2.63 2.55 2.42 2.23 2.12 2.01 1.91 1.75 1.66 1.60 1.66 1.65 1.53 1.52 1.49 1.43 1.48 1.58 1.69 1.76 1.83 1.89 1.91 1.99 1.95 2.04 2.10 2.14 2.22
1.59 1.48 1.40 1.37 1.41 1.56 1.69 1.86 2.09 2.21 2.26 2.26 2.22 2.39 2.45 2.32 2.17 2.03 1.97 1.87 1.73 1.66 1.65 1.60 1.56 1.54 1.45 1.40 1.36 1.34 1.32 1.31 1.41 1.53 1.58 1.63 1.67 1.64 1.59 1.65 1.66 1.77 1.88
1.74 1.51 1.46 1.42 1.45 1.54 1.58 1.64 1.79 1.97 2.11 2.20 2.35 2.39 2.32 2.18 2.09 1.89 1.70 1.60 1.51 1.55 1.61 1.56 1.47 1.38 1.31 1.25 1.30 1.35 1.33 1.28 1.29 1.30 1.33 1.33 1.29 1.26 1.30 1.31 1.37 1.53 1.80
1.62 1.50 1.49 1.54 1.55 1.51 1.51 1.54 1.68 1.78 2.01 2.12 2.12 2.08 2.02 1.96 1.94 1.88 1.72 1.54 1.42 1.38 1.46 1.42 1.38 1.30 1.19 1.12 1.16 1.22 1.22 1.22 1.18 1.16 1.14 1.10 1.08 1.12 1.10 1.03 1.15 1.40 1.67
1.51 1.46 1.44 1.54 1.48 1.43 1.40 1.37 1.50 1.54 1.68 1.83 1.82 1.76 1.76 1.81 1.76 1.74 1.63 1.52 1.42 1.36 1.37 1.35 1.26 1.13 0.96 0.96 0.98 0.95 1.01 1.14 1.20 1.17 1.07 0.99 0.94 0.92 0.93 0.93 1.02 1.17 1.31
1.67 1.70 1.75 1.74 1.55 1.43 1.39 1.43 1.49 1.52 1.59 1.66 1.61 1.62 1.62 1.60 1.58 1.44 1.39 1.43 1.46 1.38 1.31 1.22 1.11 1.00 0.92 0.87 0.84 0.88 0.95 1.06 1.15 1.18 1.18 1.02 0.86 0.94 0.97 0.99 1.03 1.06 1.11
1.99 2.01 1.98 1.84 1.64 1.50 1.47 1.51 1.49 1.53 1.62 1.60 1.53 1.47 1.48 1.42 1.40 1.40 1.38 1.37 1.37 1.33 1.28 1.17 1.05 0.98 0.88 0.85 0.83 0.85 0.87 1.00 1.06 1.08 1.10 1.11 1.06 0.99 1.04 1.02 1.04 1.06 1.11
1.99 1.92 1.85 1.76 1.63 1.50 1.45 1.43 1.45 1.42 1.42 1.38 1.34 1.27 1.29 1.35 1.36 1.34 1.40 1.38 1.29 1.24 1.17 1.10 1.07 1.02 0.90 0.82 0.78 0.82 0.91 1.01 0.98 0.91 0.90 0.89 0.89 0.89 0.97 1.05 1.15 1.15 1.12
1.63 1.70 1.71 1.63 1.52 1.41 1.32 1.32 1.36 1.35 1.30 1.26 1.26 1.16 1.16 1.23 1.28 1.30 1.34 1.25 1.20 1.16 1.05 1.00 1.03 1.03 0.98 0.84 0.73 0.77 0.80 0.87 0.87 0.86 0.82 0.79 0.74 0.71 0.71 0.82 1.04 1.16 1.11
1.38 1.40 1.56 1.61 1.43 1.23 1.18 1.26 1.26 1.24 1.11 1.10 1.16 1.15 1.13 1.15 1.15 1.17 1.21 1.18 1.13 1.13 1.13 1.11 1.11 1.10 1.03 0.87 0.75 0.72 0.71 0.74 0.78 0.81 0.81 0.78 0.67 0.57 0.59 0.71 0.89 0.96 0.95
1.26 1.26 1.41 1.39 1.22 1.10 1.14 1.21 1.21 1.10 1.02 1.08 1.19 1.18 1.15 1.05 1.03 1.17 1.21 1.15 1.13 1.09 1.13 1.14 1.13 1.13 1.08 0.91 0.77 0.70 0.67 0.68 0.72 0.77 0.77 0.72 0.65 0.56 0.58 0.65 0.78 0.83 0.95
1.11 1.13 1.22 1.22 1.12 1.06 1.12 1.17 1.15 1.04 1.08 1.17 1.20 1.21 1.13 1.10 1.10 1.14 1.16 1.11 1.07 0.99 0.98 0.99 1.02 1.01 0.94 0.87 0.78 0.71 0.66 0.65 0.67 0.68 0.68 0.64 0.65 0.67 0.76 0.81 0.83 0.91 1.11
0.99 1.01 1.10 1.11 1.04 0.96 0.97 1.00 0.94 0.94 1.09 1.22 1.19 1.17 1.15 1.14 1.09 1.05 1.01 0.99 0.97 0.91 0.85 0.86 0.88 0.85 0.82 0.76 0.66 0.62 0.61 0.60 0.63 0.66 0.72 0.79 0.85 0.87 0.90 0.96 1.04 1.11 1.19
0.96 1.01 1.10 1.09 0.97 0.88 0.85 0.84 0.88 0.97 1.12 1.14 1.09 1.05 1.06 1.03 0.99 0.89 0.83 0.81 0.75 0.67 0.64 0.64 0.65 0.64 0.65 0.64 0.59 0.55 0.57 0.54 0.58 0.65 0.79 0.97 1.05 1.07 1.04 1.03 1.06 1.10 1.12
0.96 1.02 1.02 0.98 0.91 0.81 0.77 0.80 0.85 0.88 1.00 1.02 0.99 0.94 0.95 0.92 0.85 0.81 0.75 0.69 0.57 0.54 0.49 0.45 0.47 0.48 0.54 0.54 0.46 0.46 0.48 0.49 0.59 0.68 0.91 1.06 1.11 1.13 1.03 0.98 0.95 0.95 0.96

GEFSMW_prec_meanprecacc_282.txt.gz
Total_Precipitation_Accumulation
1.85 2.27 2.40 2.45 2.76 3.03 3.20 3.17 3.40 3.80 4.07 4.46 4.46 4.68 5.12 5.41 5.51 5.62 5.63 5.56 5.49 5.49 5.34 5.17 5.26 5.10 4.86 4.62 4.55 4.53 4.44 4.12 4.05 4.07 3.62 2.96 2.53 2.32 2.16 2.17 2.22 2.04 2.03
1.70 2.12 2.32 2.62 2.89 3.06 3.30 3.41 3.55 4.05 4.55 5.11 5.64 6.03 6.41 6.42 6.50 6.41 6.30 6.00 5.83 5.75 5.58 5.59 5.42 5.19 5.05 4.78 4.56 4.52 4.44 4.11 4.12 4.14 4.07 3.31 2.77 2.18 1.72 1.83 1.88 1.85 1.94
1.77 1.99 2.21 2.50 2.80 3.04 3.28 3.43 3.78 4.45 5.31 5.89 6.36 6.90 7.22 6.91 6.63 6.34 6.25 6.15 6.08 5.99 5.87 5.85 5.58 5.35 5.08 4.72 4.43 4.30 4.22 4.09 4.11 4.01 4.11 3.55 2.87 2.35 1.91 1.68 1.60 1.67 1.81
1.73 1.94 2.12 2.34 2.64 3.02 3.19 3.43 4.07 4.78 5.45 6.07 6.70 7.27 7.54 7.56 7.31 6.75 6.27 5.84 5.56 5.37 5.28 5.25 5.10 4.91 4.63 4.37 4.06 3.96 3.91 4.04 3.90 3.86 3.65 3.38 3.01 2.77 2.38 2.00 1.75 1.71 1.72
1.66 1.85 2.02 2.21 2.33 2.69 3.19 3.56 4.17 4.87 5.52 6.29 7.06 7.50 7.73 7.70 7.32 6.53 5.75 5.19 4.90 4.63 4.42 4.36 4.26 4.11 3.92 3.75 3.66 3.68 3.62 3.56 3.42 3.32 3.32 3.33 3.27 2.93 2.60 2.26 1.99 1.90 1.78
1.49 1.59 1.82 1.96 2.23 2.59 3.01 3.52 3.86 4.47 5.17 5.80 6.43 6.66 6.81 6.73 6.30 5.89 5.40 5.00 4.51 4.06 3.72 3.57 3.46 3.29 3.16 3.16 3.18 3.24 3.22 3.23 3.21 3.12 2.99 2.96 2.94 2.76 2.67 2.40 2.15 2.12 1.95
1.41 1.63 1.91 1.90 2.17 2.48 2.87 3.36 3.78 4.15 4.67 5.24 5.75 6.00 6.17 6.08 5.59 5.16 4.74 4.33 3.83 3.45 3.14 2.94 2.87 2.77 2.71 2.72 2.85 2.95 2.90 2.84 2.87 2.85 2.77 2.70 2.61 2.55 2.55 2.61 2.41 2.14 1.88
1.50 1.60 1.73 1.82 2.14 2.39 2.66 3.09 3.45 3.82 4.05 4.31 4.71 4.96 5.13 4.99 4.67 4.22 3.74 3.45 3.15 2.82 2.62 2.49 2.42 2.34 2.26 2.24 2.41 2.56 2.64 2.62 2.64 2.62 2.70 2.61 2.46 2.44 2.41 2.46 2.56 2.45 2.17
1.42 1.55 1.71 1.82 2.02 2.35 2.75 3.02 3.14 3.35 3.56 3.83 3.94 3.93 4.02 3.93 3.71 3.43 3.12 2.83 2.55 2.24 2.10 2.07 2.07 2.03 1.99 2.04 2.20 2.28 2.25 2.31 2.34 2.42 2.52 2.50 2.44 2.43 2.37 2.44 2.55 2.63 2.51
1.44 1.53 1.65 1.82 1.89 1.95 2.33 2.74 2.85 2.97 3.07 3.18 3.24 3.14 3.20 3.08 3.04 2.87 2.62 2.35 2.16 1.93 1.84 1.80 1.83 1.87 1.84 1.88 1.99 2.08 2.10 2.06 2.03 2.15 2.31 2.36 2.35 2.46 2.51 2.60 2.63 2.64 2.64
1.58 1.61 1.63 1.65 1.77 1.91 2.09 2.34 2.61 2.66 2.72 2.87 2.86 2.76 2.81 2.78 2.76 2.62 2.42 2.28 2.22 2.06 1.90 1.77 1.83 1.84 1.76 1.76 1.81 1.78 1.83 1.90 1.94 1.97 2.05 2.13 2.20 2.33 2.37 2.44 2.46 2.54 2.57
1.49 1.49 1.47 1.44 1.52 1.76 2.00 2.17 2.33 2.37 2.44 2.53 2.59 2.67 2.70 2.62 2.50 2.31 2.20 2.09 1.99 1.84 1.75 1.69 1.76 1.74 1.60 1.58 1.55 1.49 1.55 1.65 1.75 1.82 1.88 1.93 1.96 2.03 2.00 2.09 2.14 2.18 2.27
1.64 1.52 1.44 1.43 1.45 1.59 1.72 1.90 2.15 2.26 2.30 2.29 2.25 2.42 2.48 2.36 2.22 2.09 2.03 1.94 1.80 1.75 1.77 1.75 1.73 1.70 1.58 1.49 1.43 1.41 1.40 1.37 1.45 1.57 1.62 1.67 1.71 1.67 1.62 1.67 1.68 1.79 1.91
1.77 1.55 1.50 1.46 1.48 1.57 1.60 1.66 1.81 2.00 2.14 2.23 2.38 2.43 2.36 2.23 2.13 1.93 1.73 1.63 1.57 1.63 1.71 1.66 1.58 1.50 1.41 1.33 1.35 1.40 1.37 1.32 1.31 1.32 1.36 1.37 1.33 1.30 1.34 1.35 1.41 1.56 1.82
1.67 1.55 1.55 1.58 1.58 1.54 1.54 1.57 1.72 1.81 2.03 2.15 2.16 2.12 2.05 1.99 1.96 1.90 1.74 1.56 1.45 1.41 1.50 1.46 1.42 1.36 1.25 1.17 1.19 1.25 1.24 1.25 1.21 1.19 1.17 1.12 1.11 1.14 1.12 1.05 1.17 1.41 1.68
1.58 1.55 1.51 1.60 1.54 1.47 1.43 1.40 1.54 1.58 1.72 1.86 1.86 1.80 1.78 1.83 1.78 1.75 1.64 1.54 1.44 1.38 1.40 1.39 1.30 1.18 1.01 1.02 1.01 0.98 1.03 1.16 1.22 1.19 1.09 1.00 0.95 0.93 0.94 0.95 1.03 1.18 1.32
1.73 1.77 1.82 1.83 1.66 1.52 1.45 1.48 1.54 1.57 1.62 1.69 1.64 1.64 1.64 1.61 1.60 1.46 1.41 1.45 1.48 1.40 1.33 1.24 1.15 1.04 0.96 0.92 0.88 0.91 0.98 1.08 1.17 1.21 1.21 1.04 0.87 0.95 0.98 1.00 1.04 1.06 1.12
2.05 2.07 2.04 1.89 1.71 1.59 1.55 1.57 1.54 1.56 1.64 1.62 1.55 1.49 1.49 1.43 1.41 1.42 1.41 1.40 1.40 1.35 1.30 1.19 1.07 1.00 0.91 0.89 0.88 0.89 0.90 1.04 1.10 1.11 1.13 1.14 1.09 1.02 1.06 1.03 1.05 1.07 1.11
2.03 1.96 1.91 1.81 1.68 1.56 1.51 1.49 1.50 1.46 1.44 1.40 1.36 1.28 1.30 1.36 1.37 1.35 1.42 1.40 1.31 1.26 1.19 1.11 1.08 1.04 0.92 0.85 0.82 0.86 0.94 1.04 1.02 0.97 0.94 0.92 0.93 0.93 1.01 1.09 1.18 1.17 1.13
1.66 1.73 1.76 1.68 1.56 1.44 1.37 1.37 1.41 1.38 1.32 1.28 1.27 1.18 1.18 1.24 1.30 1.32 1.35 1.27 1.22 1.18 1.06 1.01 1.05 1.04 1.00 0.86 0.76 0.82 0.85 0.92 0.92 0.92 0.88 0.84 0.78 0.75 0.74 0.85 1.07 1.20 1.13
1.41 1.43 1.60 1.66 1.48 1.26 1.21 1.30 1.31 1.28 1.15 1.13 1.19 1.18 1.15 1.16 1.17 1.19 1.23 1.20 1.15 1.15 1.14 1.12 1.12 1.12 1.05 0.90 0.79 0.77 0.75 0.78 0.83 0.86 0.85 0.82 0.71 0.62 0.63 0.73 0.91 0.99 0.98
1.29 1.29 1.44 1.43 1.27 1.15 1.19 1.26 1.25 1.13 1.05 1.12 1.23 1.21 1.18 1.07 1.05 1.19 1.23 1.18 1.16 1.11 1.16 1.16 1.15 1.14 1.10 0.94 0.82 0.75 0.71 0.73 0.78 0.83 0.82 0.77 0.69 0.60 0.63 0.68 0.79 0.84 0.96
1.15 1.16 1.24 1.25 1.16 1.12 1.17 1.22 1.18 1.08 1.13 1.21 1.25 1.27 1.18 1.14 1.12 1.16 1.18 1.13 1.09 1.01 1.01 1.03 1.05 1.03 0.96 0.89 0.81 0.75 0.70 0.69 0.71 0.72 0.72 0.69 0.70 0.71 0.79 0.84 0.85 0.92 1.12
1.06 1.06 1.15 1.15 1.10 1.02 1.01 1.04 0.98 0.98 1.13 1.26 1.22 1.20 1.20 1.19 1.14 1.09 1.04 1.02 1.00 0.93 0.87 0.89 0.91 0.87 0.84 0.77 0.68 0.65 0.63 0.63 0.67 0.70 0.76 0.82 0.89 0.91 0.93 0.98 1.06 1.12 1.20
1.01 1.04 1.14 1.13 1.00 0.92 0.88 0.88 0.93 1.02 1.16 1.19 1.13 1.09 1.10 1.07 1.04 0.94 0.86 0.83 0.76 0.68 0.66 0.66 0.67 0.65 0.66 0.66 0.61 0.57 0.59 0.57 0.61 0.69 0.82 1.00 1.08 1.09 1.06 1.04 1.07 1.12 1.13
1.00 1.06 1.05 1.01 0.93 0.83 0.80 0.83 0.88 0.91 1.05 1.07 1.03 0.99 1.01 0.98 0.91 0.87 0.80 0.73 0.60 0.55 0.50 0.47 0.48 0.49 0.55 0.56 0.48 0.48 0.51 0.52 0.62 0.72 0.95 1.10 1.14 1.15 1.04 0.99 0.97 0.96 0.97

GEFSMW_prec_meanprecacc_288.txt.gz
Total_Precipitation_Accumulation
1.88 2.30 2.41 2.45 2.77 3.04 3.21 3.18 3.41 3.82 4.08 4.48 4.48 4.72 5.21 5.55 5.66 5.72 5.69 5.61 5.54 5.54 5.39 5.22 5.29 5.12 4.88 4.65 4.59 4.58 4.49 4.17 4.10 4.12 3.67 2.99 2.55 2.34 2.18 2.19 2.25 2.08 2.06
1.73 2.16 2.34 2.63 2.90 3.06 3.30 3.42 3.57 4.06 4.56 5.14 5.68 6.07 6.49 6.51 6.61 6.53 6.39 6.06 5.90 5.83 5.64 5.65 5.47 5.24 5.10 4.83 4.62 4.59 4.50 4.18 4.20 4.21 4.15 3.37 2.80 2.21 1.76 1.86 1.90 1.88 1.96
1.79 2.02 2.24 2.52 2.82 3.05 3.29 3.45 3.80 4.46 5.33 5.91 6.41 6.96 7.29 6.98 6.69 6.40 6.31 6.20 6.13 6.06 5.94 5.90 5.62 5.40 5.13 4.78 4.52 4.40 4.33 4.21 4.21 4.10 4.19 3.60 2.90 2.38 1.95 1.70 1.62 1.68 1.83
1.76 1.98 2.16 2.37 2.66 3.04 3.21 3.45 4.09 4.80 5.48 6.10 6.73 7.32 7.58 7.58 7.34 6.77 6.29 5.87 5.60 5.41 5.34 5.33 5.18 4.98 4.70 4.45 4.13 4.04 3.99 4.13 3.98 3.94 3.73 3.43 3.05 2.81 2.42 2.02 1.77 1.73 1.73
1.69 1.88 2.08 2.26 2.36 2.72 3.22 3.58 4.20 4.90 5.55 6.34 7.10 7.54 7.75 7.71 7.34 6.55 5.76 5.21 4.92 4.67 4.48 4.44 4.34 4.18 3.98 3.81 3.73 3.76 3.70 3.65 3.51 3.40 3.40 3.42 3.34 2.99 2.63 2.29 2.01 1.92 1.80
1.53 1.64 1.88 2.01 2.27 2.64 3.05 3.56 3.90 4.52 5.22 5.86 6.49 6.71 6.86 6.78 6.34 5.91 5.41 5.01 4.52 4.09 3.76 3.64 3.53 3.35 3.21 3.20 3.21 3.29 3.26 3.28 3.26 3.17 3.05 3.02 3.01 2.81 2.71 2.43 2.17 2.14 1.97
1.46 1.68 1.96 1.94 2.21 2.53 2.92 3.42 3.84 4.21 4.75 5.33 5.84 6.10 6.27 6.18 5.69 5.23 4.80 4.37 3.87 3.47 3.16 2.97 2.90 2.80 2.74 2.74 2.89 2.99 2.93 2.88 2.91 2.89 2.81 2.74 2.66 2.60 2.60 2.66 2.44 2.15 1.90
1.54 1.64 1.76 1.86 2.18 2.45 2.74 3.14 3.48 3.86 4.11 4.39 4.79 5.05 5.24 5.11 4.77 4.30 3.82 3.51 3.21 2.87 2.67 2.53 2.46 2.39 2.31 2.28 2.45 2.60 2.67 2.66 2.69 2.67 2.76 2.68 2.53 2.51 2.47 2.51 2.60 2.49 2.19
1.44 1.58 1.74 1.86 2.06 2.41 2.85 3.08 3.17 3.38 3.59 3.87 4.01 4.03 4.12 4.01 3.78 3.49 3.18 2.89 2.62 2.31 2.16 2.12 2.13 2.09 2.06 2.10 2.25 2.32 2.28 2.35 2.39 2.48 2.58 2.56 2.49 2.49 2.42 2.48 2.59 2.67 2.53
1.46 1.56 1.69 1.88 1.93 2.00 2.39 2.77 2.87 2.99 3.09 3.21 3.28 3.20 3.27 3.16 3.11 2.93 2.68 2.42 2.23 2.00 1.91 1.87 1.90 1.93 1.90 1.93 2.02 2.12 2.15 2.12 2.09 2.20 2.35 2.40 2.38 2.50 2.55 2.63 2.66 2.67 2.66
1.61 1.63 1.65 1.69 1.81 1.94 2.12 2.37 2.62 2.68 2.75 2.91 2.91 2.80 2.87 2.85 2.84 2.70 2.51 2.36 2.32 2.18 2.00 1.85 1.91 1.91 1.84 1.82 1.85 1.81 1.88 1.95 1.98 2.02 2.10 2.18 2.25 2.38 2.42 2.50 2.51 2.58 2.62
1.52 1.51 1.48 1.46 1.54 1.78 2.03 2.20 2.35 2.39 2.47 2.57 2.66 2.75 2.78 2.70 2.58 2.41 2.29 2.18 2.08 1.95 1.87 1.82 1.85 1.81 1.68 1.68 1.63 1.56 1.62 1.73 1.82 1.87 1.93 1.98 2.02 2.10 2.06 2.15 2.21 2.24 2.33
1.66 1.53 1.45 1.44 1.48 1.62 1.75 1.93 2.17 2.28 2.33 2.33 2.30 2.47 2.52 2.40 2.27 2.16 2.11 2.02 1.90 1.84 1.85 1.84 1.82 1.79 1.69 1.65 1.60 1.56 1.53 1.47 1.52 1.62 1.66 1.72 1.76 1.72 1.67 1.72 1.73 1.83 1.95
1.79 1.56 1.51 1.48 1.51 1.60 1.63 1.69 1.83 2.02 2.17 2.26 2.42 2.47 2.39 2.26 2.16 1.97 1.78 1.68 1.62 1.68 1.76 1.72 1.64 1.59 1.50 1.41 1.44 1.47 1.43 1.37 1.36 1.37 1.40 1.40 1.36 1.33 1.36 1.37 1.43 1.58 1.84
1.68 1.56 1.56 1.60 1.60 1.56 1.56 1.58 1.74 1.83 2.05 2.17 2.18 2.15 2.09 2.04 2.02 1.95 1.78 1.60 1.47 1.43 1.53 1.50 1.47 1.41 1.32 1.22 1.25 1.30 1.27 1.28 1.24 1.22 1.20 1.15 1.13 1.16 1.13 1.06 1.18 1.43 1.70
1.59 1.57 1.53 1.62 1.56 1.49 1.44 1.42 1.56 1.62 1.77 1.90 1.89 1.84 1.84 1.92 1.88 1.81 1.67 1.56 1.45 1.40 1.42 1.41 1.33 1.21 1.06 1.08 1.09 1.04 1.07 1.18 1.24 1.20 1.10 1.02 0.97 0.95 0.95 0.96 1.04 1.19 1.33
1.75 1.78 1.83 1.85 1.69 1.55 1.47 1.51 1.57 1.61 1.67 1.74 1.68 1.69 1.70 1.68 1.65 1.50 1.43 1.46 1.48 1.40 1.33 1.25 1.16 1.05 0.99 0.97 0.94 0.98 1.03 1.11 1.19 1.23 1.23 1.06 0.89 0.97 1.00 1.02 1.05 1.07 1.12
2.07 2.09 2.06 1.92 1.75 1.63 1.60 1.62 1.58 1.61 1.70 1.67 1.59 1.54 1.54 1.48 1.44 1.44 1.42 1.41 1.41 1.35 1.30 1.19 1.08 1.01 0.93 0.91 0.91 0.93 0.95 1.09 1.13 1.13 1.16 1.18 1.13 1.06 1.09 1.06 1.07 1.08 1.12
2.05 1.98 1.93 1.83 1.70 1.58 1.53 1.51 1.52 1.50 1.50 1.43 1.39 1.32 1.34 1.39 1.39 1.37 1.43 1.41 1.32 1.27 1.19 1.12 1.09 1.04 0.93 0.87 0.84 0.90 0.97 1.09 1.07 1.01 0.99 0.98 0.97 0.98 1.06 1.13 1.22 1.21 1.17
1.67 1.74 1.77 1.70 1.58 1.46 1.39 1.40 1.44 1.42 1.36 1.32 1.31 1.20 1.20 1.26 1.31 1.33 1.36 1.28 1.22 1.19 1.06 1.02 1.05 1.05 1.01 0.87 0.79 0.86 0.90 0.95 0.96 0.96 0.92 0.88 0.82 0.81 0.82 0.91 1.13 1.25 1.17
1.42 1.45 1.61 1.68 1.50 1.29 1.24 1.33 1.34 1.32 1.19 1.17 1.23 1.22 1.19 1.20 1.21 1.23 1.26 1.22 1.16 1.16 1.15 1.13 1.13 1.12 1.06 0.91 0.80 0.78 0.77 0.80 0.84 0.88 0.87 0.84 0.73 0.64 0.66 0.79 0.96 1.04 1.03
1.30 1.30 1.45 1.44 1.29 1.17 1.21 1.29 1.28 1.18 1.11 1.17 1.28 1.26 1.23 1.12 1.09 1.23 1.27 1.21 1.19 1.13 1.17 1.17 1.16 1.15 1.11 0.95 0.83 0.77 0.72 0.74 0.79 0.84 0.84 0.78 0.71 0.62 0.65 0.73 0.85 0.90 1.01
1.18 1.18 1.26 1.27 1.18 1.14 1.20 1.26 1.23 1.15 1.20 1.28 1.31 1.33 1.24 1.20 1.18 1.22 1.22 1.17 1.15 1.06 1.04 1.04 1.06 1.04 0.97 0.89 0.82 0.77 0.72 0.71 0.72 0.73 0.73 0.71 0.72 0.73 0.82 0.87 0.89 0.98 1.17
1.11 1.11 1.20 1.19 1.14 1.08 1.08 1.10 1.05 1.06 1.22 1.36 1.32 1.29 1.29 1.27 1.21 1.16 1.11 1.07 1.05 0.98 0.92 0.91 0.93 0.89 0.85 0.78 0.69 0.66 0.65 0.65 0.69 0.72 0.78 0.85 0.91 0.93 0.95 0.99 1.08 1.15 1.24
1.05 1.08 1.19 1.19 1.06 0.98 0.96 0.97 1.02 1.11 1.25 1.28 1.24 1.20 1.20 1.16 1.13 1.02 0.95 0.91 0.83 0.73 0.70 0.69 0.69 0.67 0.67 0.66 0.62 0.59 0.61 0.59 0.62 0.71 0.85 1.02 1.10 1.12 1.09 1.06 1.09 1.13 1.15
1.04 1.08 1.08 1.05 0.97 0.87 0.84 0.90 0.95 0.99 1.13 1.13 1.10 1.07 1.09 1.04 0.97 0.93 0.86 0.78 0.65 0.59 0.53 0.48 0.49 0.51 0.57 0.57 0.50 0.49 0.52 0.54 0.65 0.75 0.98 1.12 1.16 1.17 1.07 1.01 0.98 0.97 0.99